Wautoma, WI

6:06 PM CST on February 20, 2018 (GMT -0600)
Wautoma

Weather History for KY50 - January, 2013

Change the Weather History Date:

Wednesday, January 2, 2013

  Actual Average (KPCZ) Record (KPCZ)
Temperature  
Mean Temperature 16 °F -  
Max Temperature 21 °F 25 °F 42 °F (1950)
Min Temperature 12 °F 7 °F -20 °F (1979)
Degree Days  
Heating Degree Days 48    
Moisture  
Dew Point 9 °F    
Average Humidity 71    
Maximum Humidity 86    
Minimum Humidity 53    
Precipitation  
Precipitation 0.00 in - - ()
Sea Level Pressure  
Sea Level Pressure 30.09 in    
Wind  
Wind Speed 4 mph (South)    
Max Wind Speed 9 mph    
Max Gust Speed -    
Visibility 10 miles    
Events      
Averages and records for this station are not official NWS values.
T = Trace of Precipitation, MM = Missing Value Source: NWS Daily Summary

Daily Weather History Graph

Daily Weather History Graph

Search for Another Location

Airport or City:

Trip Planner

Search our weather history database for the weather conditions in past years. The results will help you decide how hot, cold, wet, or windy it might be!

Date:

Astronomy

Jan. 02, 2013 Rise Set
Actual Time 7:32 AM CST 4:30 PM CST
Civil Twilight 6:59 AM CST 5:03 PM CST
Nautical Twilight 6:22 AM CST 5:40 PM CST
Astronomical Twilight 5:47 AM CST 6:15 PM CST
Moon 10:16 PM CST (1/2) 10:02 AM CST (1/2)
Length of Visible Light 10h 04m
Length of Day
8h 58m
Waning Gibbous, 75% of the Moon is Illuminated
Jan 2
Waning Gibbous
Jan 4
Last Quarter
Jan 11
New
Jan 18
First Quarter
Jan 26
Full

Hourly Weather History & Observations

Time (CST) Temp. Windchill Dew Point Humidity Pressure Visibility Wind Dir Wind Speed Gust Speed Precip Events Conditions
12:56 AM 12.0 °F - 5.0 °F 73% 30.13 in 10.0 mi Calm Calm - N/A   Overcast
1:56 AM 13.1 °F 4.0 °F 7.2 °F 77% 30.13 in 10.0 mi SW 5.8 mph - N/A   Overcast
2:56 AM 14.0 °F 6.5 °F 9.1 °F 81% 30.13 in 10.0 mi SSW 4.6 mph - N/A   Overcast
3:56 AM 15.1 °F 7.7 °F 10.0 °F 80% 30.14 in 10.0 mi SSW 4.6 mph - N/A   Overcast
4:56 AM 15.1 °F 5.2 °F 11.1 °F 84% 30.14 in 10.0 mi SW 6.9 mph - N/A   Overcast
5:15 AM 15.8 °F 8.6 °F 10.4 °F 79% 30.09 in 10.0 mi SSW 4.6 mph - N/A   Overcast
6:56 AM 15.1 °F - 11.1 °F 84% 30.14 in 10.0 mi Calm Calm - N/A   Overcast
7:56 AM 15.1 °F 7.7 °F 11.1 °F 84% 30.14 in 10.0 mi SSE 4.6 mph - N/A   Overcast
8:56 AM 15.8 °F 6.1 °F 12.2 °F 86% 30.09 in 10.0 mi SSE 6.9 mph - N/A   Overcast
9:56 AM 17.1 °F 5.8 °F 9.1 °F 71% 30.14 in 10.0 mi SSW 9.2 mph - N/A   Overcast
10:56 AM 19.0 °F 9.0 °F 8.1 °F 62% 30.12 in 10.0 mi SSE 8.1 mph - N/A   Overcast
11:28 AM 19.4 °F 10.4 °F 6.8 °F 58% 30.06 in 10.0 mi South 6.9 mph - N/A   Scattered Clouds
11:56 AM 21.0 °F 11.4 °F 6.1 °F 53% 30.09 in 10.0 mi South 8.1 mph - N/A   Clear
12:56 PM 21.0 °F 12.4 °F 6.1 °F 53% 30.06 in 10.0 mi SSW 6.9 mph - N/A   Overcast
1:56 PM 21.0 °F 12.4 °F 7.2 °F 55% 30.05 in 10.0 mi South 6.9 mph - N/A   Scattered Clouds
2:56 PM 21.0 °F 11.4 °F 8.1 °F 57% 30.05 in 10.0 mi SSE 8.1 mph - N/A   Overcast
3:56 PM 20.1 °F 11.3 °F 9.1 °F 62% 30.06 in 10.0 mi SE 6.9 mph - N/A   Overcast
4:56 PM 19.0 °F 11.1 °F 9.1 °F 65% 30.06 in 10.0 mi SE 5.8 mph - N/A   Overcast
5:56 PM 19.0 °F - 9.1 °F 65% 30.07 in 10.0 mi Calm Calm - N/A   Overcast
6:56 PM 19.0 °F - 11.1 °F 71% 30.08 in 10.0 mi Calm Calm - N/A   Overcast
7:21 PM 19.4 °F - 10.4 °F 68% 30.03 in 10.0 mi Calm Calm - N/A   Overcast
7:56 PM 19.0 °F - 11.1 °F 71% 30.06 in 10.0 mi Calm Calm - N/A   Overcast
8:56 PM 19.0 °F - 12.0 °F 74% 30.06 in 10.0 mi Calm Calm - N/A   Overcast
9:56 PM 19.0 °F 11.1 °F 12.0 °F 74% 30.06 in 10.0 mi SW 5.8 mph - N/A   Overcast
10:56 PM 18.1 °F - 12.0 °F 77% 30.06 in 10.0 mi Calm Calm - N/A   Overcast
11:56 PM 17.1 °F 8.7 °F 12.0 °F 81% 30.07 in 10.0 mi WSW 5.8 mph - N/A   Overcast